Meteo pe oră la Almodovar

Astăzi, 17 Ianuarie, Duminică

Timp Temperatura Precipitaţii Vânt Presiune Umiditate
00:00 +6°C° 0 mm 2 m/s 758 mmHg 61%
01:00 +6°C° 0 mm 2 m/s 758 mmHg 60%
02:00 +6°C° 0 mm 2 m/s 758 mmHg 59%
03:00 +5°C° 0 mm 2 m/s 757 mmHg 58%
04:00 +5°C° 0 mm 2 m/s 757 mmHg 56%
05:00 +5°C° 0 mm 2 m/s 757 mmHg 55%
06:00 +5°C° 0 mm 2 m/s 757 mmHg 53%
07:00 +6°C° 0 mm 2 m/s 757 mmHg 53%
08:00 +6°C° 0 mm 2 m/s 757 mmHg 52%
09:00 +7°C° 0 mm 2 m/s 757 mmHg 52%
10:00 +10°C° 0 mm 2 m/s 757 mmHg 48%
11:00 +13°C° 0 mm 2 m/s 757 mmHg 43%
12:00 +15°C° 0 mm 2 m/s 757 mmHg 39%
13:00 +16°C° 0 mm 2 m/s 757 mmHg 40%
14:00 +16°C° 0 mm 2 m/s 756 mmHg 40%
15:00 +18°C° 0 mm 1 m/s 755 mmHg 41%
16:00 +15°C° 0 mm 1 m/s 755 mmHg 47%
17:00 +13°C° 0 mm 1 m/s 756 mmHg 52%
18:00 +11°C° 0 mm 1 m/s 756 mmHg 58%
19:00 +10°C° 0 mm 1 m/s 756 mmHg 59%
20:00 +10°C° 0 mm 1 m/s 756 mmHg 60%
21:00 +9°C° 0 mm 1 m/s 756 mmHg 61%
22:00 +9°C° 0 mm 1 m/s 756 mmHg 62%
23:00 +8°C° 0 mm 1 m/s 756 mmHg 63%

Mâine, 18 Ianuarie, Luni

Timp Temperatura Precipitaţii Vânt Presiune Umiditate
00:00 +8°C° 0 mm 1 m/s 756 mmHg 64%
01:00 +8°C° 0 mm 1 m/s 756 mmHg 64%
02:00 +7°C° 0 mm 1 m/s 756 mmHg 64%
03:00 +7°C° 0 mm 1 m/s 755 mmHg 65%
04:00 +7°C° 0 mm 1 m/s 755 mmHg 64%
05:00 +7°C° 0 mm 1 m/s 755 mmHg 63%
06:00 +6°C° 0 mm 1 m/s 755 mmHg 63%
07:00 +7°C° 0 mm 1 m/s 755 mmHg 61%
08:00 +8°C° 0 mm 1 m/s 755 mmHg 60%
09:00 +9°C° 0 mm 1 m/s 756 mmHg 58%
10:00 +11°C° 0 mm 1 m/s 756 mmHg 53%
11:00 +13°C° 0 mm 1 m/s 756 mmHg 47%
12:00 +15°C° 0 mm 1 m/s 756 mmHg 42%
13:00 +15°C° 0 mm 1 m/s 755 mmHg 42%
14:00 +16°C° 0 mm 1 m/s 755 mmHg 42%
15:00 +16°C° 0 mm 1 m/s 754 mmHg 42%
16:00 +14°C° 0 mm 1 m/s 754 mmHg 48%
17:00 +11°C° 0 mm 0 m/s 754 mmHg 55%
18:00 +9°C° 0 mm 0 m/s 754 mmHg 62%
19:00 +9°C° 0 mm 0 m/s 755 mmHg 63%
20:00 +8°C° 0 mm 0 m/s 755 mmHg 64%
21:00 +8°C° 0 mm 0 m/s 755 mmHg 64%
22:00 +8°C° 0 mm 0 m/s 755 mmHg 66%
23:00 +7°C° 0 mm 0 m/s 755 mmHg 67%

Poimâine, 19 Ianuarie, Marţi

Timp Temperatura Precipitaţii Vânt Presiune Umiditate
00:00 +7°C° 0 mm 0 m/s 755 mmHg 69%
01:00 +7°C° 0 mm 0 m/s 755 mmHg 72%
02:00 +7°C° 0 mm 0 m/s 755 mmHg 74%
03:00 +6°C° 0 mm 0 m/s 754 mmHg 77%
04:00 +7°C° 0 mm 1 m/s 754 mmHg 78%
05:00 +7°C° 0 mm 1 m/s 754 mmHg 80%
06:00 +6°C° 0 mm 1 m/s 754 mmHg 81%
07:00 +7°C° 0 mm 1 m/s 754 mmHg 79%
08:00 +8°C° 0 mm 1 m/s 754 mmHg 76%
09:00 +8°C° 0 mm 0 m/s 754 mmHg 74%
10:00 +10°C° 0 mm 1 m/s 754 mmHg 69%
11:00 +12°C° 0 mm 1 m/s 754 mmHg 64%
12:00 +13°C° 0 mm 1 m/s 754 mmHg 58%
13:00 +13°C° 0 mm 1 m/s 753 mmHg 59%
14:00 +14°C° 0 mm 2 m/s 752 mmHg 59%
15:00 +14°C° 0 mm 2 m/s 751 mmHg 59%
16:00 +13°C° 0 mm 2 m/s 751 mmHg 67%
17:00 +12°C° 0 mm 1 m/s 751 mmHg 75%
18:00 +10°C° 0 mm 1 m/s 751 mmHg 83%
19:00 +10°C° 0 mm 1 m/s 751 mmHg 84%
20:00 +10°C° 0 mm 1 m/s 751 mmHg 85%
21:00 +10°C° 0 mm 1 m/s 751 mmHg 86%
22:00 +10°C° 0 mm 1 m/s 751 mmHg 87%
23:00 +10°C° 0 mm 1 m/s 751 mmHg 88%

20 Ianuarie, Miercuri

Timp Temperatura Precipitaţii Vânt Presiune Umiditate
00:00 +9°C° 0 mm 2 m/s 751 mmHg 89%
01:00 +9°C° 0 mm 2 m/s 750 mmHg 86%
02:00 +9°C° 0 mm 2 m/s 750 mmHg 84%
03:00 +9°C° 0 mm 3 m/s 749 mmHg 82%
04:00 +9°C° 0 mm 3 m/s 749 mmHg 82%
05:00 +9°C° 0 mm 3 m/s 748 mmHg 81%
06:00 +9°C° 0 mm 3 m/s 747 mmHg 81%
07:00 +10°C° 0.5 mm 3 m/s 747 mmHg 81%
08:00 +10°C° 0.5 mm 4 m/s 747 mmHg 81%
09:00 +10°C° 0.5 mm 4 m/s 746 mmHg 82%
10:00 +10°C° 6.5 mm 3 m/s 746 mmHg 87%
11:00 +10°C° 6.5 mm 3 m/s 746 mmHg 92%
12:00 +10°C° 6.5 mm 3 m/s 746 mmHg 97%
13:00 +11°C° 0.9 mm 4 m/s 745 mmHg 92%
14:00 +13°C° 0.9 mm 5 m/s 745 mmHg 87%
15:00 +14°C° 0.9 mm 5 m/s 745 mmHg 82%
16:00 +13°C° 0.2 mm 5 m/s 745 mmHg 84%
17:00 +12°C° 0.2 mm 4 m/s 745 mmHg 85%
18:00 +11°C° 0.2 mm 3 m/s 746 mmHg 87%
19:00 +10°C° 0 mm 3 m/s 746 mmHg 89%
20:00 +10°C° 0 mm 3 m/s 747 mmHg 91%
21:00 +9°C° 0 mm 2 m/s 748 mmHg 93%
22:00 +9°C° 0 mm 2 m/s 748 mmHg 94%
23:00 +9°C° 0 mm 2 m/s 748 mmHg 94%

21 Ianuarie, Joi

Timp Temperatura Precipitaţii Vânt Presiune Umiditate
00:00 +9°C° 0 mm 2 m/s 749 mmHg 95%
01:00 +8°C° 0 mm 2 m/s 749 mmHg 95%
02:00 +8°C° 0 mm 2 m/s 749 mmHg 96%
03:00 +8°C° 0 mm 2 m/s 749 mmHg 96%
04:00 +9°C° 0 mm 1 m/s 749 mmHg 97%
05:00 +9°C° 0 mm 1 m/s 750 mmHg 97%
06:00 +9°C° 0 mm 1 m/s 750 mmHg 97%
07:00 +10°C° 0 mm 1 m/s 750 mmHg 96%
08:00 +10°C° 0 mm 1 m/s 750 mmHg 95%
09:00 +11°C° 0 mm 1 m/s 750 mmHg 94%
10:00 +12°C° 0 mm 2 m/s 750 mmHg 91%
11:00 +12°C° 0 mm 3 m/s 750 mmHg 89%
12:00 +13°C° 0 mm 4 m/s 750 mmHg 86%
13:00 +14°C° 0.1 mm 5 m/s 750 mmHg 82%
14:00 +15°C° 0.1 mm 6 m/s 749 mmHg 78%
15:00 +15°C° 0.1 mm 8 m/s 749 mmHg 74%
16:00 +15°C° 0.2 mm 7 m/s 748 mmHg 80%
17:00 +14°C° 0.2 mm 7 m/s 748 mmHg 86%
18:00 +13°C° 0.2 mm 6 m/s 748 mmHg 91%
19:00 +13°C° 0.5 mm 6 m/s 748 mmHg 92%
20:00 +13°C° 0.5 mm 6 m/s 749 mmHg 93%
21:00 +14°C° 0.5 mm 6 m/s 749 mmHg 95%
22:00 +13°C° 0.1 mm 5 m/s 749 mmHg 95%
23:00 +13°C° 0.1 mm 4 m/s 749 mmHg 96%

22 Ianuarie, Vineri

Timp Temperatura Precipitaţii Vânt Presiune Umiditate
00:00 +12°C° 0.1 mm 4 m/s 749 mmHg 96%
01:00 +12°C° 0 mm 3 m/s 750 mmHg 96%
02:00 +11°C° 0 mm 3 m/s 750 mmHg 96%
03:00 +10°C° 0 mm 3 m/s 750 mmHg 96%
04:00 +10°C° 0 mm 3 m/s 750 mmHg 96%
05:00 +10°C° 0 mm 2 m/s 750 mmHg 96%
06:00 +10°C° 0 mm 2 m/s 751 mmHg 96%
07:00 +10°C° 0 mm 2 m/s 751 mmHg 96%
08:00 +10°C° 0 mm 2 m/s 751 mmHg 95%
09:00 +11°C° 0 mm 3 m/s 752 mmHg 94%
10:00 +12°C° 0 mm 4 m/s 752 mmHg 88%
11:00 +13°C° 0 mm 5 m/s 752 mmHg 81%
12:00 +15°C° 0 mm 6 m/s 752 mmHg 74%
13:00 +15°C° 0.1 mm 5 m/s 751 mmHg 75%
14:00 +15°C° 0.1 mm 5 m/s 751 mmHg 75%
15:00 +14°C° 0.1 mm 5 m/s 751 mmHg 76%
16:00 +13°C° 0 mm 4 m/s 752 mmHg 78%
17:00 +12°C° 0 mm 3 m/s 752 mmHg 80%
18:00 +11°C° 0 mm 3 m/s 752 mmHg 83%
19:00 +10°C° 0 mm 2 m/s 753 mmHg 84%
20:00 +10°C° 0 mm 2 m/s 754 mmHg 85%
21:00 +10°C° 0 mm 1 m/s 754 mmHg 87%
22:00 +9°C° 0 mm 1 m/s 754 mmHg 88%
23:00 +9°C° 0 mm 1 m/s 755 mmHg 90%
Arată mai mult

Formular de consimțământ

Meteoprog și furnizorii noștri de servicii pot stoca și accesa date personale, precum cookies, identificatori de dispozitiv sau alte tehnologii similare pe dispozitivul dumneavoastră și procesa astfel de date pentru a personaliza conținutul și reclamele, dar și pentru a oferi caracteristici de social media și pentru a analiza traficul.

  • Stocarea și/sau accesarea informațiilor pe dispozitivul dumneavoastră

    Cookies, identificatori de dispozitiv sau alte informații pot fi stocate sau accesate pe dispozitiv în scopurile indicate mai sus.

  • Reclame și conținut personalizat, evaluarea reclamelor și a conținutului, informații despre audiențe și dezvoltarea produselor

    Reclamele și conținutul pot fi personalizate pe baza unui profil. Pot fi adăugate date suplimentare pentru a personaliza mai bine reclamele și conținutul. Performanța reclamelor și conținutului poate fi măsurată. Pot fi obținute informații despre utilizatorii care au văzut reclamele și conținutul. Aceste date pot fi utilizate pentru a dezvolta sau îmbunătăți experiența utilizatorilor, sistemele și software-ul.

Dând clic pe ‘Sunt de acord’, permiteți utilizarea cookie-urilor menționate, a identificatorilor de dispozitiv, balizelor web sau altor tehnologii similare. Setările pot fi modificate din browser-ul dispozitivului dumneavoastră.

În anumite scopuri, interesele legitime pot prima asupra consimțământului. Puteți citi mai multe informații în acest sens în Politica privind Confidențialitatea Datelor și Cookie.